Content
SEND FEEDBACK

Daily
Averages
Monthly
Summary
Mexico

LA TIMA, TAMAULIPAS


Home > North America > Mexico > Tamaulipas
Elevation: 52 feet     Latitude: 22 43N     Longitude: 097 55W

WEATHER
 
SELECT A DAY
Number of Records: 167,536;   Date Range: 1/1/95 - 7/28/14
 
SHARE

PRINT THIS DATA

[ ← Previous Day ]
WEATHER ALMANAC - FEBRUARY 13, 2013
[ Next Day → ]
[ °C ]   °F
Weather ElementAverageHighLow
Temperature70.5 °F73.4 °F (12:43 pm)68 °F (5:48 pm)
Dewpoint53.7 °F62.6 °F (5:45 am)48.2 °F (8:51 am)
Humidity54 %78 % (5:45 am)37 % (2:45 pm)
Barometer30.00 in30.07 in (11:40 am)29.91 in (5:45 am)
Wind Speed21.6 mph28.8 mph (4:48 pm)
Wind Gust34.5 mph (1:43 pm)
Weather ElementAverage
Visibility8.7 mi
Wind DirectionSSE (163.9 °)

Weather ElementTotal
Precipitation---
Cooling Degree Days5.7 (Base 65)
Growing Degree Days20.7 (Base 50)
Averaged from 23 records on February 13, 2013
WEATHER CONDITIONS BREAKOUT
WIND DIRECTION BREAKOUT
WEATHER BY HOUR - FEBRUARY 13, 2013
[ °C ]   °F
Local TimeTemperatureDewpointHumidityBarometerVisibilityWind DirectionWind SpeedGust SpeedPrecipitationEventsConditions
5:45 AM69.8 °F62.6 °F78 %29.91 in7.0 miNorth (360°)19.6 mphScattered Clouds
6:43 AM71.6 °F59.0 °F64 %29.94 in7.0 miNorth (10°)21.9 mphScattered Clouds
7:43 AM71.6 °F51.8 °F50 %29.97 in7.0 miNorth (360°)23.0 mphScattered Clouds
8:45 AM72.0 °F53.0 °F41 %30.04 in15.0 miNorth13.4 mphScattered Clouds
8:51 AM71.6 °F48.2 °F43 %30.01 in7.0 miNorth (360°)25.3 mphScattered Clouds
9:43 AM71.6 °F50.0 °F46 %30.02 in8.0 miNorth (360°)24.2 mphMostly Cloudy
10:51 AM71.6 °F50.0 °F46 %30.05 in7.0 miNorth (360°)25.3 mphOvercast
11:40 AM73.0 °F53.0 °F39 %30.07 in15.0 miNorth15.7 mphOvercast
11:55 AM71.6 °F51.8 °F50 %30.01 in8.0 miNorth (10°)27.6 mphOvercast
12:43 PM73.4 °F48.2 °F41 %30.03 in10.0 miNorth (10°)25.3 mphOvercast
1:43 PM71.6 °F50.0 °F46 %30.00 in8.0 miNorth (360°)23.0 mph34.5 mphOvercast
2:45 PM71.0 °F51.0 °F37 %30.00 in15.0 miNNE (20°)13.4 mphOvercast
2:59 PM69.8 °F51.8 °F53 %30.06 in8.0 miNorth (360°)23.0 mph34.5 mphOvercast
3:44 PM69.8 °F50.0 °F49 %29.96 in8.0 miNorth (360°)23.0 mph34.5 mphOvercast
4:48 PM69.8 °F55.4 °F60 %29.95 in7.0 miNorth (360°)28.8 mphOvercast
5:40 PM69.0 °F58.0 °F61 %29.99 in14.0 miNNE (20°)15.7 mphOvercast
5:48 PM68.0 °F57.2 °F68 %29.94 in7.0 miNorth (10°)28.8 mphOvercast
6:43 PM68.0 °F57.2 °F68 %29.97 in7.0 miNorth (360°)28.8 mphLight Drizzle
7:47 PM68.0 °F53.6 °F60 %30.00 in7.0 miNNE (30°)28.8 mphOvercast
8:44 PM69.8 °F53.6 °F56 %30.02 in7.0 miNorth (10°)23.0 mphOvercast
8:45 PM69.0 °F58.0 °F61 %30.04 in6.0 miNNE (20°)13.4 mphOvercast
9:44 PM69.8 °F57.2 °F64 %30.03 in7.0 miNNE (20°)2.3 mphOvercast
10:47 PM69.8 °F55.4 °F60 %30.05 in7.0 miNorth (10°)23.0 mphOvercast
Hourly data recorded from MMTM, located miles away from La Tima, Tamaulipas







STORIES FROM OUR PARTNERS